SKW4025 KSLC-KJAC

Flight info

Callsign SKW4025
Flight time 0h 38m
Altitude 29000
Route RUGGD3 HOLTR ELLKK MOSSS
Aircraft E75L/M-SDE3GILORVW/S

Departure

Time 2026-05-08 20:14
Airport Salt Lake City International Airport (KSLC)

Arrival

Time 2026-05-08 20:53
Airport Jackson Hole Airport (KJAC)
Time Latitude Longitude Altitude Speed Heading
2026-05-08 19:59 40.78639 -111.98187 4230 ft 0 kts 174°
2026-05-08 20:06 40.78646 -111.98188 4230 ft 2 kts 174°
2026-05-08 20:06 40.78661 -111.98190 4230 ft 2 kts 175°
2026-05-08 20:06 40.78677 -111.98192 4230 ft 2 kts 174°
2026-05-08 20:07 40.78692 -111.98193 4230 ft 2 kts 175°
2026-05-08 20:07 40.78702 -111.98195 4230 ft 2 kts 170°
2026-05-08 20:07 40.78715 -111.98205 4230 ft 2 kts 132°
2026-05-08 20:07 40.78722 -111.98223 4229 ft 2 kts 99°
2026-05-08 20:08 40.78723 -111.98234 4229 ft 1 kts 79°
2026-05-08 20:08 40.78722 -111.98240 4229 ft 0 kts 84°
2026-05-08 20:10 40.78723 -111.98228 4229 ft 3 kts 85°
2026-05-08 20:10 40.78727 -111.98168 4230 ft 9 kts 84°
2026-05-08 20:10 40.78735 -111.98047 4230 ft 18 kts 85°
2026-05-08 20:10 40.78748 -111.97849 4230 ft 21 kts 84°
2026-05-08 20:11 40.78712 -111.97678 4231 ft 20 kts 172°
2026-05-08 20:11 40.78569 -111.97660 4231 ft 20 kts 174°
2026-05-08 20:11 40.78423 -111.97643 4232 ft 20 kts 175°
2026-05-08 20:11 40.78280 -111.97626 4232 ft 20 kts 174°
2026-05-08 20:12 40.78133 -111.97611 4233 ft 24 kts 174°
2026-05-08 20:12 40.77929 -111.97572 4233 ft 32 kts 152°
2026-05-08 20:12 40.77715 -111.97511 4234 ft 31 kts 174°
2026-05-08 20:12 40.77501 -111.97486 4234 ft 25 kts 173°
2026-05-08 20:13 40.77509 -111.97333 4235 ft 22 kts 31°
2026-05-08 20:13 40.77668 -111.97339 4235 ft 38 kts 355°
2026-05-08 20:13 40.78140 -111.97392 4233 ft 93 kts 354°
2026-05-08 20:13 40.78955 -111.97487 4231 ft 138 kts 354°
2026-05-08 20:14 40.80033 -111.97605 4267 ft 167 kts 353°
2026-05-08 20:14 40.81244 -111.97724 4510 ft 182 kts 353°
2026-05-08 20:14 40.82499 -111.97883 5092 ft 181 kts 351°
2026-05-08 20:14 40.83725 -111.98052 5697 ft 179 kts 351°
2026-05-08 20:15 40.85040 -111.98244 5903 ft 204 kts 350°
2026-05-08 20:15 40.86540 -111.98508 6121 ft 228 kts 350°
2026-05-08 20:15 40.88155 -111.98786 6603 ft 240 kts 351°
2026-05-08 20:15 40.89805 -111.99068 7347 ft 238 kts 350°
2026-05-08 20:16 40.91522 -111.99365 7721 ft 255 kts 350°
2026-05-08 20:16 40.93352 -111.99680 7994 ft 274 kts 350°
2026-05-08 20:16 40.95327 -112.00017 8499 ft 284 kts 350°
2026-05-08 20:16 40.97305 -112.00356 9165 ft 285 kts 349°
2026-05-08 20:17 40.99308 -112.00700 9929 ft 283 kts 349°
2026-05-08 20:17 41.01244 -112.01033 10614 ft 282 kts 349°
2026-05-08 20:17 41.03239 -112.01199 11118 ft 293 kts
2026-05-08 20:17 41.05188 -112.00079 11506 ft 315 kts 36°
2026-05-08 20:18 41.06559 -111.97609 11934 ft 334 kts 64°
2026-05-08 20:18 41.07406 -111.94709 12414 ft 340 kts 64°
2026-05-08 20:18 41.08328 -111.91862 12939 ft 344 kts 62°
2026-05-08 20:18 41.09337 -111.88896 13518 ft 346 kts 62°
2026-05-08 20:19 41.10334 -111.86017 14093 ft 348 kts 61°
2026-05-08 20:19 41.11352 -111.83099 14679 ft 349 kts 61°
2026-05-08 20:19 41.12377 -111.80178 15206 ft 351 kts 59°
2026-05-08 20:19 41.13864 -111.77688 15688 ft 343 kts 32°
2026-05-08 20:20 41.15961 -111.76368 16182 ft 334 kts
2026-05-08 20:20 41.18206 -111.75729 16720 ft 334 kts
2026-05-08 20:20 41.20515 -111.75144 17237 ft 336 kts
2026-05-08 20:20 41.22814 -111.74586 17737 ft 338 kts
2026-05-08 20:21 41.25118 -111.74035 18219 ft 340 kts
2026-05-08 20:21 41.27461 -111.73478 18702 ft 343 kts
2026-05-08 20:21 41.29813 -111.72920 19186 ft 345 kts
2026-05-08 20:21 41.32181 -111.72359 19660 ft 348 kts
2026-05-08 20:22 41.34568 -111.71793 20136 ft 350 kts
2026-05-08 20:22 41.36958 -111.71225 20610 ft 352 kts
2026-05-08 20:22 41.39362 -111.70583 21060 ft 356 kts 11°
2026-05-08 20:22 41.40934 -111.69980 21339 ft 359 kts 12°
2026-05-08 20:23 41.44147 -111.68721 21928 ft 361 kts 12°
2026-05-08 20:23 41.46577 -111.67770 22343 ft 364 kts 12°
2026-05-08 20:23 41.48991 -111.66824 22754 ft 366 kts 12°
2026-05-08 20:23 41.51439 -111.65864 23141 ft 369 kts 12°
2026-05-08 20:24 41.53910 -111.64894 23537 ft 372 kts 12°
2026-05-08 20:24 41.56433 -111.63903 23932 ft 374 kts 12°
2026-05-08 20:24 41.58912 -111.62928 24336 ft 376 kts 12°
2026-05-08 20:24 41.61429 -111.61938 24739 ft 378 kts 12°
2026-05-08 20:25 41.63945 -111.60947 25107 ft 380 kts 12°
2026-05-08 20:25 41.66489 -111.59945 25472 ft 382 kts 11°
2026-05-08 20:25 41.69035 -111.58941 25832 ft 384 kts 12°
2026-05-08 20:25 41.71625 -111.57918 26191 ft 386 kts 12°
2026-05-08 20:26 41.74195 -111.56903 26529 ft 388 kts 12°
2026-05-08 20:26 41.76790 -111.55877 26889 ft 389 kts 12°
2026-05-08 20:26 41.79401 -111.54865 27206 ft 390 kts
2026-05-08 20:26 41.82042 -111.54215 27519 ft 390 kts
2026-05-08 20:27 41.84754 -111.53604 27841 ft 392 kts
2026-05-08 20:27 41.87441 -111.52998 28176 ft 394 kts
2026-05-08 20:27 41.90132 -111.52390 28504 ft 395 kts
2026-05-08 20:27 41.92859 -111.51775 28817 ft 397 kts
2026-05-08 20:28 41.95571 -111.51162 29097 ft 399 kts
2026-05-08 20:28 41.98301 -111.50544 29189 ft 397 kts
2026-05-08 20:28 42.03860 -111.49287 29214 ft 414 kts
2026-05-08 20:29 42.09636 -111.47976 29210 ft 429 kts
2026-05-08 20:29 42.15490 -111.46644 29207 ft 428 kts
2026-05-08 20:30 42.21357 -111.45307 29205 ft 427 kts
2026-05-08 20:30 42.27217 -111.43971 29200 ft 427 kts
2026-05-08 20:31 42.32984 -111.41870 29214 ft 432 kts 15°
2026-05-08 20:31 42.38647 -111.39053 29204 ft 433 kts 15°
2026-05-08 20:32 42.44276 -111.36255 29206 ft 434 kts 15°
2026-05-08 20:32 42.49951 -111.33430 29205 ft 433 kts 16°
2026-05-08 20:33 42.55614 -111.30605 29198 ft 432 kts 15°
2026-05-08 20:33 42.61279 -111.27775 29199 ft 432 kts 16°
2026-05-08 20:34 42.66908 -111.24957 29196 ft 432 kts 16°
2026-05-08 20:35 42.75371 -111.20709 29186 ft 431 kts 15°
2026-05-08 20:35 42.80996 -111.17879 29183 ft 434 kts 15°
2026-05-08 20:36 42.86779 -111.14965 29187 ft 448 kts 15°
2026-05-08 20:36 42.92562 -111.11589 29187 ft 466 kts 26°
2026-05-08 20:37 42.97781 -111.06209 29183 ft 473 kts 34°
2026-05-08 20:37 43.02948 -111.00565 29182 ft 473 kts 34°
2026-05-08 20:38 43.08117 -110.94928 29178 ft 479 kts 34°
2026-05-08 20:38 43.10722 -110.92083 28711 ft 479 kts 33°
2026-05-08 20:38 43.13317 -110.89246 28207 ft 480 kts 34°
2026-05-08 20:38 43.15911 -110.86406 27683 ft 472 kts 34°
2026-05-08 20:39 43.18451 -110.83621 27166 ft 459 kts 33°
2026-05-08 20:39 43.20927 -110.80906 26665 ft 453 kts 33°
2026-05-08 20:39 43.23361 -110.78234 26169 ft 452 kts 33°
2026-05-08 20:39 43.25822 -110.75530 25665 ft 449 kts 33°
2026-05-08 20:40 43.28286 -110.72818 25163 ft 446 kts 33°
2026-05-08 20:40 43.30685 -110.70176 24675 ft 443 kts 34°
2026-05-08 20:40 43.33078 -110.67536 24178 ft 441 kts 34°
2026-05-08 20:40 43.35466 -110.64901 23688 ft 438 kts 33°
2026-05-08 20:41 43.37817 -110.62303 23214 ft 435 kts 33°
2026-05-08 20:41 43.40181 -110.59688 22741 ft 431 kts 34°
2026-05-08 20:41 43.42509 -110.57111 22260 ft 430 kts 34°
2026-05-08 20:41 43.44832 -110.54536 21790 ft 427 kts 34°
2026-05-08 20:42 43.47140 -110.51975 21330 ft 426 kts 34°
2026-05-08 20:42 43.49447 -110.49413 20864 ft 423 kts 34°
2026-05-08 20:42 43.51716 -110.46891 20386 ft 421 kts 34°
2026-05-08 20:42 43.53980 -110.44371 19928 ft 418 kts 34°
2026-05-08 20:43 43.56204 -110.41891 19494 ft 403 kts 34°
2026-05-08 20:43 43.58336 -110.39512 19367 ft 380 kts 34°
2026-05-08 20:43 43.60344 -110.37272 19305 ft 369 kts 34°
2026-05-08 20:43 43.62341 -110.35044 19231 ft 376 kts 34°
2026-05-08 20:44 43.64394 -110.32752 18046 ft 390 kts 35°
2026-05-08 20:44 43.66498 -110.30521 17250 ft 363 kts 25°
2026-05-08 20:44 43.68827 -110.29524 16992 ft 348 kts
2026-05-08 20:44 43.71221 -110.29717 16543 ft 345 kts 348°
2026-05-08 20:45 43.73557 -110.30341 16130 ft 343 kts 345°
2026-05-08 20:45 43.75109 -110.30835 15875 ft 343 kts 343°
2026-05-08 20:45 43.78156 -110.31879 15386 ft 341 kts 343°
2026-05-08 20:45 43.80425 -110.32768 14990 ft 338 kts 333°
2026-05-08 20:46 43.82256 -110.34689 14689 ft 331 kts 307°
2026-05-08 20:46 43.83284 -110.37524 14210 ft 331 kts 285°
2026-05-08 20:46 43.83821 -110.40606 13818 ft 329 kts 283°
2026-05-08 20:46 43.84304 -110.43681 13440 ft 327 kts 282°
2026-05-08 20:47 43.84769 -110.46762 13085 ft 327 kts 282°
2026-05-08 20:47 43.85222 -110.49820 12719 ft 325 kts 282°
2026-05-08 20:47 43.85672 -110.52885 12350 ft 323 kts 282°
2026-05-08 20:47 43.86106 -110.55928 11995 ft 322 kts 277°
2026-05-08 20:48 43.85881 -110.58921 11659 ft 318 kts 249°
2026-05-08 20:48 43.84641 -110.61417 11248 ft 318 kts 223°
2026-05-08 20:48 43.82742 -110.62874 10837 ft 312 kts 204°
2026-05-08 20:48 43.80755 -110.63927 10349 ft 294 kts 204°
2026-05-08 20:49 43.78875 -110.64914 10010 ft 284 kts 203°
2026-05-08 20:49 43.77013 -110.65845 9609 ft 264 kts 202°
2026-05-08 20:49 43.75342 -110.66651 9255 ft 246 kts 202°
2026-05-08 20:49 43.73761 -110.67424 8958 ft 233 kts 202°
2026-05-08 20:50 43.72243 -110.68166 8640 ft 229 kts 203°
2026-05-08 20:50 43.70757 -110.68893 8339 ft 224 kts 201°
2026-05-08 20:50 43.69333 -110.69586 8115 ft 205 kts 202°
2026-05-08 20:50 43.68055 -110.70210 7805 ft 186 kts 203°
2026-05-08 20:51 43.66886 -110.70782 7541 ft 170 kts 202°
2026-05-08 20:51 43.65835 -110.71294 7332 ft 155 kts 202°
2026-05-08 20:51 43.64831 -110.71786 7146 ft 154 kts 203°
2026-05-08 20:51 43.63807 -110.72295 6940 ft 154 kts 202°
2026-05-08 20:52 43.62822 -110.72768 6743 ft 151 kts 201°
2026-05-08 20:52 43.61843 -110.73237 6568 ft 148 kts 206°
2026-05-08 20:52 43.60901 -110.73697 6451 ft 122 kts 202°
2026-05-08 20:52 43.60344 -110.73972 6440 ft 59 kts 200°
2026-05-08 20:53 43.60052 -110.74115 6434 ft 31 kts 199°
2026-05-08 20:53 43.59906 -110.74050 6433 ft 13 kts 87°
2026-05-08 20:53 43.59971 -110.73991 6434 ft 11 kts 20°
2026-05-08 20:53 43.60052 -110.73949 6436 ft 16 kts 19°
2026-05-08 20:54 43.60182 -110.73888 6438 ft 19 kts 18°
2026-05-08 20:54 43.60309 -110.73828 6440 ft 18 kts 25°
2026-05-08 20:54 43.60428 -110.73766 6442 ft 17 kts 18°
2026-05-08 20:54 43.60480 -110.73711 6443 ft 7 kts 111°
2026-05-08 20:55 43.60467 -110.73664 6444 ft 3 kts 109°
2026-05-08 20:55 43.60465 -110.73655 6444 ft 0 kts 110°